Location: R�serve Fauniques des Laurentides
(47.3100°N, 71.1900°W)
Time: 20:12:56
(UTC-04:00)

Cosmos 1674 - Visible Passes

Search period start: 22 March 2017 00:00
Search period end: 01 April 2017 00:00
Orbit: 498 x 524 km, 82.5° (Epoch: 21 March)

Date Brightness Start Highest point End Pass type
(mag) Time Alt. Az. Time Alt. Az. Time Alt. Az.
22 Mar 4.4 19:55:58 10° NNE 19:58:19 16° ENE 19:59:18 15° E visible
22 Mar 3.7 21:30:36 10° NNW 21:34:11 42° W 21:34:15 42° W visible
23 Mar 4.6 19:39:58 10° NE 19:41:48 13° ENE 19:43:36 10° E visible
23 Mar 3.3 21:14:06 10° NNW 21:17:47 54° W 21:18:34 44° SW visible
24 Mar 2.9 20:57:37 10° NNW 21:01:23 69° W 21:02:56 33° S visible
25 Mar 2.6 20:41:11 10° N 20:44:58 88° W 20:47:22 22° S visible
26 Mar 2.5 20:24:45 10° N 20:28:33 73° E 20:31:54 13° SSE visible
27 Mar 2.7 20:08:21 10° N 20:12:06 57° ENE 20:15:51 10° SSE visible
27 Mar 5.8 21:45:53 10° WNW 21:47:13 12° W 21:48:32 10° WSW visible
28 Mar 3.0 19:51:59 10° N 19:55:39 45° ENE 19:59:19 10° SSE visible
28 Mar 5.7 21:28:47 10° NW 21:30:52 14° W 21:32:58 10° WSW visible
29 Mar 5.5 21:11:57 10° NW 21:14:32 18° W 21:17:07 10° SW visible
30 Mar 5.2 20:55:13 10° NW 20:58:10 22° W 21:01:07 10° SW visible
31 Mar 4.9 20:38:34 10° NNW 20:41:48 27° W 20:45:02 10° SSW visible
